Overview Statistics Trail Chart Weather Telemetry Raw packets
 

This is the latest recevied weather packets stored in our database for station/object DG6YGE-6. If no packets are shown the sender has not sent any weather packets the latest 10 day(s).

<< 21 22 23 24 25 26 27 >>
Time Temp. Humidity Pressure Rain* Wind** Luminosity Snow
1788334753 13.89° C 94% 1018.6 hPa 0 mm - 180 W/m² -
1788334152 13.89° C 94% 1018.7 hPa 0 mm - 175 W/m² -
1788333552 13.33° C 95% 1018.5 hPa 0 mm - 143 W/m² -
1788332952 13.33° C 94% 1018.4 hPa 0 mm - 142 W/m² -
1788332352 13.33° C 95% 1018.5 hPa 0 mm - 100 W/m² -
1788331752 13.33° C 94% 1018.7 hPa 0 mm - 73 W/m² -
1788331152 12.78° C 95% 1018.6 hPa 0 mm - 61 W/m² -
1788330552 12.78° C 95% 1018.7 hPa 0 mm - 70 W/m² -
1788329952 12.78° C 94% 1018.5 hPa 0 mm - 59 W/m² -
1788329352 12.78° C 94% 1018.7 hPa 0 mm - 57 W/m² -
1788328753 12.22° C 94% 1018.5 hPa 0 mm - 73 W/m² -
1788328153 12.22° C 94% 1018.4 hPa 0 mm - 50 W/m² -
1788327552 12.22° C 94% 1018.4 hPa 0 mm - 33 W/m² -
1788326952 12.22° C 94% 1018.3 hPa 0 mm - 20 W/m² -
1788326353 12.22° C 94% 1018.3 hPa 0 mm - 18 W/m² -
1788325753 12.22° C 94% 1018.3 hPa 0 mm - 5 W/m² -
1788325153 12.22° C 94% 1018.2 hPa 0 mm - 0 W/m² -
1788324552 12.22° C 94% 1018.3 hPa 0 mm - 0 W/m² -
1788323952 12.22° C 94% 1018.4 hPa 0 mm - 0 W/m² -
1788323352 12.22° C 94% 1018.5 hPa 0 mm - 0 W/m² -
1788322752 12.22° C 94% 1018.5 hPa 0 mm - 0 W/m² -
1788322152 12.22° C 94% 1018.5 hPa 0 mm - 0 W/m² -
1788321552 12.22° C 94% 1018.4 hPa 0 mm - 0 W/m² -
1788320952 11.67° C 94% 1018.5 hPa 0 mm - 0 W/m² -
1788320352 11.67° C 94% 1018.5 hPa 0 mm - 0 W/m² -

* Rain latest hour (hover to see other rain measurements)
** Current wind speed in m/s (hover to see current wind gust speed)